Content
SEND FEEDBACK

Daily
Averages
Monthly
Summary
Canada

MONTREAL, QUEBEC


Home > North America > Canada > Quebec
Elevation: 118 feet     Latitude: 45 28N     Longitude: 073 45W

WEATHER
 
SELECT A DAY
Number of Records: 203,669;   Date Range: 1/1/95 - 12/26/14
 
SHARE

PRINT THIS DATA

[ ← Previous Day ]
WEATHER ALMANAC - APRIL 20, 2013
[ Next Day → ]
[ °C ]   °F
Weather ElementAverageHighLow
Temperature41.5 °F46.4 °F (10:00 am)35.6 °F (10:00 pm)
Dewpoint30.5 °F37.4 °F (1:00 am)17.6 °F (11:00 pm)
Humidity64.5 %87 % (11:00 am)46 % (8:00 pm)
Barometer29.85 in30.24 in (11:00 pm)29.64 in (3:00 am)
Wind Speed23.5 mph35.7 mph (4:52 pm)
Wind Gust46 mph (4:52 pm)
Weather ElementAverage
Visibility19.8 mi
Wind DirectionWSW (238.6 °)

Weather ElementTotal
Precipitation---
Heating Degree Days24 (Base 65)
Averaged from 37 records on April 20, 2013
WEATHER CONDITIONS BREAKOUT
WIND DIRECTION BREAKOUT
WEATHER BY HOUR - APRIL 20, 2013
[ °C ]   °F
Local TimeTemperatureDewpointHumidityBarometerVisibilityWind DirectionWind SpeedGust SpeedPrecipitationEventsConditions
1:00 AM44.6 °F37.4 °F76 %29.65 in15.0 miSW (230°)23.0 mph33.4 mphOvercast
2:00 AM44.0 °F36.0 °F64 %29.65 in15.0 miSW (230°)25.3 mphPartly Cloudy
2:00 AM42.8 °F35.6 °F76 %29.65 in15.0 miSW (230°)26.5 mph38.0 mphMostly Cloudy
3:00 AM42.8 °F35.6 °F76 %29.64 in15.0 miSW (220°)23.0 mphMostly Cloudy
4:00 AM42.8 °F33.8 °F70 %29.64 in15.0 miSW (220°)18.4 mphScattered Clouds
5:00 AM42.8 °F33.8 °F70 %29.66 in15.0 miSW (220°)16.1 mphOvercast
6:00 AM42.8 °F33.8 °F70 %29.67 in15.0 miSSW (210°)20.7 mphOvercast
7:00 AM42.8 °F32.0 °F66 %29.68 in15.0 miSW (220°)20.7 mph32.2 mphOvercast
8:00 AM42.8 °F30.2 °F61 %29.69 in15.0 miSW (220°)24.2 mph31.1 mphOvercast
8:00 AM43.0 °F31.0 °F52 %29.69 in15.0 miSW (220°)23.0 mphOvercast
9:00 AM44.6 °F30.2 °F57 %29.70 in30.0 miSW (230°)31.1 mph36.8 mphScattered Clouds
10:00 AM46.4 °F30.2 °F53 %29.71 in30.0 miSW (230°)28.8 mph42.6 mphMostly Cloudy
10:02 AM44.6 °F32.0 °F61 %29.72 in30.0 miWSW (250°)32.2 mph41.4 mphRainLight Rain Showers
11:00 AM41.0 °F37.4 °F87 %29.73 in30.0 miSW (230°)18.4 mph27.6 mphScattered Clouds
12:00 PM44.6 °F28.4 °F53 %29.75 in30.0 miWSW (250°)26.5 mph38.0 mphMostly Cloudy
12:50 PM46.4 °F30.2 °F53 %29.78 in30.0 miWest (260°)31.1 mph40.3 mphRainLight Rain Showers
1:00 PM41.0 °F35.6 °F81 %29.80 in30.0 miWest (260°)25.3 mph43.7 mphRainLight Rain Showers
2:00 PM42.8 °F35.6 °F76 %29.82 in30.0 miSW (230°)25.3 mph33.4 mphScattered Clouds
2:00 PM43.0 °F36.0 °F69 %29.82 in28.0 miSW (230°)24.2 mphRainLight Rain Showers
2:05 PM42.8 °F35.6 °F76 %29.83 in15.0 miSW (220°)25.3 mph33.4 mphRainLight Rain Showers
2:25 PM41.0 °F35.6 °F81 %29.84 in30.0 miSW (220°)28.8 mphRainLight Rain Showers
2:42 PM41.0 °F37.4 °F87 %29.84 in30.0 miSW (230°)24.2 mph35.7 mphRainLight Rain Showers
3:00 PM42.8 °F33.8 °F70 %29.86 in15.0 miWSW (250°)23.0 mph31.1 mphMostly Cloudy
3:35 PM39.2 °F32.0 °F75 %29.89 in15.0 miSW (230°)24.2 mph34.5 mphOvercast
4:00 PM41.0 °F30.2 °F65 %29.91 in15.0 miWSW (240°)20.7 mph32.2 mphOvercast
4:17 PM41.0 °F28.4 °F61 %29.92 in30.0 miWSW (240°)16.1 mph32.2 mphOvercast
4:52 PM41.0 °F24.8 °F53 %29.95 in15.0 miWSW (240°)35.7 mph46.0 mphLight Small Hail Showers
5:00 PM39.2 °F28.4 °F65 %29.96 in15.0 miWSW (250°)25.3 mph46.0 mph
5:27 PM41.0 °F23.0 °F49 %29.97 in30.0 miWSW (250°)21.9 mph27.6 mphOvercast
6:00 PM41.0 °F23.0 °F49 %30.00 in10.0 miWSW (240°)24.2 mph32.2 mphOvercast
6:41 PM39.2 °F24.8 °F56 %30.03 in3.0 miWSW (250°)25.3 mph39.1 mph
7:00 PM37.4 °F26.6 °F65 %30.04 in15.0 miWest (260°)17.3 mph23.0 mphOvercast
8:00 PM37.0 °F24.0 °F46 %30.10 in15.0 miWSW (250°)15.0 mphOvercast
8:00 PM37.4 °F23.0 °F56 %30.09 in15.0 miWSW (250°)17.3 mphOvercast
9:00 PM37.4 °F21.2 °F52 %30.15 in15.0 miWSW (250°)20.7 mph27.6 mphMostly Cloudy
10:00 PM35.6 °F23.0 °F60 %30.20 in15.0 miWNW (290°)19.6 mph27.6 mphOvercast
11:00 PM35.6 °F17.6 °F48 %30.24 in15.0 miWest (280°)19.6 mphMostly Cloudy
Hourly data recorded from CYUL, located miles away from Montreal, Quebec







STORIES FROM OUR PARTNERS